Overview Statistics Trail Chart Weather Telemetry Raw packets
 

This is the latest recevied weather packets stored in our database for station/object SQ5JP-4. If no packets are shown the sender has not sent any weather packets the latest 10 day(s).

<< 1 2 3 4 5 >>
Time Temp. Humidity Pressure Rain* Wind** Luminosity Snow
1788570246 17.22° C 100% 986.5 hPa - - - -
1788569346 17.22° C 100% 986.1 hPa - - - -
1788568446 17.22° C 100% 985.9 hPa - - - -
1788567546 17.22° C 100% 985.9 hPa - - - -
1788566645 17.22° C 100% 985.9 hPa - - - -
1788565745 17.22° C 100% 985.8 hPa - - - -
1788564845 17.22° C 100% 985.8 hPa - - - -
1788563945 16.67° C 100% 985.7 hPa - - - -
1788563045 16.67° C 100% 985.5 hPa - - - -
1788562145 16.67° C 100% 985.1 hPa - - - -
1788561245 16.67° C 100% 985 hPa - - - -
1788560345 16.67° C 100% 985 hPa - - - -
1788559445 16.67° C 100% 985.2 hPa - - - -
1788558544 16.67° C 100% 985.2 hPa - - - -
1788557644 17.22° C 100% 985 hPa - - - -
1788556744 17.22° C 100% 984.6 hPa - - - -
1788555844 17.78° C 100% 984.9 hPa - - - -
1788554944 17.78° C 100% 984.8 hPa - - - -
1788554043 18.33° C 100% 985.1 hPa - - - -
1788553143 19.44° C 100% 984.9 hPa - - - -
1788552243 20° C 100% 985.2 hPa - - - -
1788551343 20° C 100% 985.5 hPa - - - -
1788550443 20.56° C 100% 985.8 hPa - - - -
1788548646 20.56° C 100% 986.2 hPa - - - -
1788547746 20.56° C 100% 986.6 hPa - - - -

* Rain since midnight (hover to see other rain measurements)
** Current wind speed in m/s (hover to see current wind gust speed)